Location: Recife
(8.0585°S, 34.8848°W)
Time: 21:42:34
(UTC-03:00)

Altair - Pass Details

Date: 15 April 2026
Orbit: 1501 x 1682 km, 47.2° (Epoch: 17 May)

Event Time Altitude Azimuth Distance (km) Brightness Sun altitude
Rises 09:57:30 0° 236° (SW) 4,893 9.9 62.8°
Reaches altitude 10° 10:00:55 10° 243° (WSW) 3,919 9.5 63.4°
Maximum altitude 10:10:02 39° 308° (NW) 2,330 9.0 65.1°
Drops below altitude 10° 10:19:13 10° 14° (NNE) 3,923 10.1 66.6°
Sets 10:22:40 0° 22° (NNE) 4,897 10.5 67.1°
